ロニオス彗星

493P/LONEOS (2026)

English version
Home page
Updated on October 1, 2025

---------------------------------------------------------------------

・ プロフィール

符号 493P/2024 Q2
検出日 2024年8月30日、8月2日
検出光度 19.6等、20.0等
検出者 Martin Masek (Cherenkov Telescope Array, La Palma, Spain), Michael S. P. Kelley (Zwicky Transient Facility)

・ 写真集

・ 軌道要素

Epoch 2024 Oct. 17.0 TT = JDT 2460600.5                                         
T 2026 Jan. 14.21388 TT                                 Rudenko                 
q   3.8234450            (2000.0)            P               Q                  
n   0.05144912     Peri.   83.19620     +0.10079910     -0.99487498             
a   7.1595227      Node     1.11580     +0.67207245     +0.06219198             
e   0.4659637      Incl.   24.11695     +0.73359264     +0.07972407             
P  19.2                                                                         
>From 527 observations 2005 Sept. 23-2024 Sept. 3, mean residual 0".7.           

・ 光度変化

        m1 = 5.0 + 5 logΔ + 15.0 log r(t - 200)

---------------------------------------------------------------------

軌道要素はM.P.E.C. 2024-R78に掲載されたものです。
光度グラフはComet for Windowsで作成したものです。

---------------------------------------------------------------------

Copyright(C) Seiichi Yoshida (comet@aerith.net). All rights reserved.